User: anonymous   Login
Location: Luz Observatory
(34.5000°N, 117.2833°W)
Time: 12:12:12
(UTC-08:00)
Language:

Okean 3 Rocket - Orbit

View from above orbital plane
View from above orbital plane
View from above satellite
View from above satellite

Ground track
Ground track

The orbit data is extracted from the following two-line orbital elements,

1 21398U 91039B   17017.93568703 +.00000087 +00000-0 +85630-5 0  9994
2 21398 082.5224 006.0492 0020411 318.5138 064.9457 14.79646094360651
Epoch (UTC): 17 January 2017 22:27:23
Eccentricity: 0.0020411
inclination: 82.5224°
perigee height: 616 km
apogee height: 645 km
right ascension of ascending node: 6.0492°
argument of perigee: 318.5138°
revolutions per day: 14.79646094
mean anomaly at epoch: 64.9457°
orbit number at epoch: 36065

The dashed part of the orbit path shows where the satellite is in the earth's shadow,  

DLR